Location: Bjelajci
(45.0103°N, 16.1758°E)
Time: 08:24:54
(UTC+00:00)

Cosmos 2221 Rocket - Pass Details

Date: 14 July 2020
Orbit: 619 x 649 km, 82.5° (Epoch: 07 August)

Event Time Altitude Azimuth Distance (km) Brightness Sun altitude
Rises 00:32:41 0° 357° (N) 2,911 8.1 -20.2°
Reaches altitude 10° 00:35:01 10° 4° (N) 1,998 7.2 -20.0°
Maximum altitude 00:39:15 44° 77° (ENE) 859 4.5 -19.7°
Enters shadow 00:41:59 20° 141° (SE) 1,447 5.2 -19.5°
